• In Russia
  • List of Countries
  • For 7 days
  • Water Temperature
  • Satellite Maps
  • Weather Map
  • Weather Widgets
  • user-avatar
    Login

    Hourly Weather Moyamba

    Today, 23 January, Tuesday

    Time Temperature Precipitation Wind Pressure Humidity
    00:00 +21°C° 0 mm 0 mps 752 mmHg 79%
    01:00 +21°C° 0 mm 0 mps 751 mmHg 81%
    02:00 +21°C° 0 mm 0 mps 751 mmHg 83%
    03:00 +20°C° 0 mm 0 mps 751 mmHg 85%
    04:00 +20°C° 0 mm 0 mps 751 mmHg 87%
    05:00 +20°C° 0 mm 0 mps 752 mmHg 89%
    06:00 +21°C° 0 mm 0 mps 752 mmHg 81%
    07:00 +23°C° 0 mm 0 mps 752 mmHg 74%
    08:00 +27°C° 0 mm 1 mps 752 mmHg 67%
    09:00 +28°C° 0 mm 0 mps 752 mmHg 55%
    10:00 +32°C° 0 mm 0 mps 752 mmHg 42%
    11:00 +36°C° 0 mm 0 mps 752 mmHg 30%
    12:00 +39°C° 0 mm 1 mps 751 mmHg 27%
    13:00 +39°C° 0 mm 1 mps 751 mmHg 24%
    14:00 +40°C° 0 mm 2 mps 750 mmHg 21%
    15:00 +38°C° 0 mm 2 mps 750 mmHg 25%
    16:00 +37°C° 0 mm 2 mps 750 mmHg 30%
    17:00 +35°C° 0 mm 2 mps 750 mmHg 34%
    18:00 +32°C° 0 mm 2 mps 750 mmHg 46%
    19:00 +29°C° 0 mm 2 mps 751 mmHg 58%
    20:00 +27°C° 0 mm 2 mps 751 mmHg 69%
    21:00 +26°C° 0 mm 2 mps 751 mmHg 73%
    22:00 +25°C° 0 mm 1 mps 752 mmHg 77%
    23:00 +25°C° 0 mm 1 mps 752 mmHg 81%

    Tomorrow, 24 January, Wednesday

    Time Temperature Precipitation Wind Pressure Humidity
    00:00 +24°C° 0 mm 1 mps 752 mmHg 83%
    01:00 +22°C° 0 mm 0 mps 751 mmHg 85%
    02:00 +21°C° 0 mm 0 mps 751 mmHg 87%
    03:00 +21°C° 0 mm 0 mps 751 mmHg 89%
    04:00 +21°C° 0 mm 0 mps 751 mmHg 90%
    05:00 +22°C° 0 mm 1 mps 751 mmHg 92%
    06:00 +24°C° 0 mm 1 mps 751 mmHg 84%
    07:00 +26°C° 0 mm 1 mps 752 mmHg 77%
    08:00 +27°C° 0 mm 1 mps 752 mmHg 69%
    09:00 +30°C° 0 mm 1 mps 752 mmHg 56%
    10:00 +34°C° 0 mm 1 mps 752 mmHg 44%
    11:00 +35°C° 0 mm 0 mps 752 mmHg 31%
    12:00 +39°C° 0 mm 1 mps 751 mmHg 28%
    13:00 +39°C° 0 mm 1 mps 751 mmHg 25%
    14:00 +40°C° 0 mm 2 mps 750 mmHg 22%
    15:00 +38°C° 0 mm 2 mps 750 mmHg 27%
    16:00 +37°C° 0 mm 2 mps 750 mmHg 32%
    17:00 +35°C° 0 mm 3 mps 749 mmHg 37%
    18:00 +31°C° 0 mm 2 mps 750 mmHg 47%
    19:00 +29°C° 0 mm 2 mps 751 mmHg 58%
    20:00 +27°C° 0 mm 2 mps 751 mmHg 69%
    21:00 +26°C° 0 mm 2 mps 751 mmHg 73%
    22:00 +26°C° 0 mm 1 mps 752 mmHg 77%
    23:00 +25°C° 0 mm 1 mps 752 mmHg 82%

    Day after tomorrow, 25 January, Thursday

    Time Temperature Precipitation Wind Pressure Humidity
    00:00 +24°C° 0 mm 1 mps 751 mmHg 84%
    01:00 +24°C° 0 mm 1 mps 751 mmHg 87%
    02:00 +22°C° 0 mm 0 mps 751 mmHg 89%
    03:00 +21°C° 0 mm 0 mps 751 mmHg 91%
    04:00 +21°C° 0 mm 0 mps 751 mmHg 92%
    05:00 +20°C° 0 mm 0 mps 751 mmHg 94%
    06:00 +22°C° 0 mm 0 mps 751 mmHg 86%
    07:00 +24°C° 0 mm 0 mps 752 mmHg 78%
    08:00 +25°C° 0 mm 0 mps 752 mmHg 70%
    09:00 +29°C° 0 mm 0 mps 752 mmHg 58%
    10:00 +32°C° 0 mm 0 mps 752 mmHg 45%
    11:00 +35°C° 0 mm 0 mps 752 mmHg 32%
    12:00 +39°C° 0 mm 1 mps 751 mmHg 29%
    13:00 +40°C° 0 mm 1 mps 750 mmHg 26%
    14:00 +40°C° 0 mm 1 mps 749 mmHg 23%
    15:00 +38°C° 0 mm 2 mps 749 mmHg 27%
    16:00 +37°C° 0 mm 2 mps 749 mmHg 31%
    17:00 +35°C° 0 mm 2 mps 749 mmHg 36%
    18:00 +32°C° 0 mm 2 mps 749 mmHg 47%
    19:00 +30°C° 0 mm 2 mps 750 mmHg 58%
    20:00 +27°C° 0 mm 2 mps 751 mmHg 68%
    21:00 +26°C° 0 mm 2 mps 751 mmHg 73%
    22:00 +26°C° 0 mm 1 mps 751 mmHg 77%
    23:00 +25°C° 0 mm 1 mps 751 mmHg 81%

    26 January, Friday

    Time Temperature Precipitation Wind Pressure Humidity
    00:00 +25°C° 0 mm 1 mps 751 mmHg 83%
    01:00 +22°C° 0 mm 0 mps 751 mmHg 85%
    02:00 +22°C° 0 mm 0 mps 750 mmHg 87%
    03:00 +22°C° 0 mm 0 mps 750 mmHg 89%
    04:00 +21°C° 0 mm 0 mps 751 mmHg 91%
    05:00 +21°C° 0 mm 0 mps 751 mmHg 92%
    06:00 +23°C° 0 mm 0 mps 751 mmHg 85%
    07:00 +26°C° 0 mm 1 mps 752 mmHg 78%
    08:00 +28°C° 0 mm 1 mps 752 mmHg 71%
    09:00 +31°C° 0 mm 1 mps 752 mmHg 60%
    10:00 +32°C° 0 mm 0 mps 752 mmHg 48%
    11:00 +35°C° 0 mm 0 mps 752 mmHg 37%
    12:00 +39°C° 0 mm 1 mps 751 mmHg 33%
    13:00 +40°C° 0 mm 1 mps 750 mmHg 30%
    14:00 +40°C° 0 mm 1 mps 749 mmHg 27%
    15:00 +38°C° 0 mm 2 mps 749 mmHg 31%
    16:00 +37°C° 0 mm 2 mps 749 mmHg 35%
    17:00 +35°C° 0 mm 2 mps 749 mmHg 39%
    18:00 +32°C° 0 mm 2 mps 749 mmHg 49%
    19:00 +30°C° 0 mm 2 mps 750 mmHg 59%
    20:00 +28°C° 0 mm 2 mps 751 mmHg 69%
    21:00 +27°C° 0 mm 2 mps 751 mmHg 73%
    22:00 +26°C° 0 mm 1 mps 751 mmHg 77%
    23:00 +26°C° 0 mm 1 mps 751 mmHg 81%

    27 January, Saturday

    Time Temperature Precipitation Wind Pressure Humidity
    00:00 +25°C° 0 mm 1 mps 751 mmHg 83%
    01:00 +25°C° 0 mm 1 mps 751 mmHg 85%
    02:00 +23°C° 0 mm 0 mps 750 mmHg 87%
    03:00 +22°C° 0 mm 0 mps 751 mmHg 89%
    04:00 +22°C° 0 mm 0 mps 751 mmHg 90%
    05:00 +22°C° 0 mm 0 mps 751 mmHg 92%
    06:00 +23°C° 0 mm 0 mps 751 mmHg 85%
    07:00 +25°C° 0 mm 0 mps 752 mmHg 78%
    08:00 +26°C° 0 mm 0 mps 752 mmHg 71%
    09:00 +29°C° 0 mm 0 mps 752 mmHg 61%
    10:00 +32°C° 0 mm 0 mps 752 mmHg 50%
    11:00 +36°C° 0 mm 1 mps 752 mmHg 40%
    12:00 +37°C° 0 mm 1 mps 751 mmHg 37%
    13:00 +37°C° 0 mm 1 mps 750 mmHg 34%
    14:00 +39°C° 0 mm 2 mps 749 mmHg 31%
    15:00 +37°C° 0 mm 2 mps 749 mmHg 36%
    16:00 +36°C° 0 mm 2 mps 749 mmHg 41%
    17:00 +34°C° 0 mm 3 mps 749 mmHg 45%
    18:00 +31°C° 0 mm 2 mps 750 mmHg 54%
    19:00 +30°C° 0 mm 2 mps 751 mmHg 63%
    20:00 +28°C° 0 mm 2 mps 751 mmHg 72%
    21:00 +27°C° 0 mm 2 mps 751 mmHg 76%
    22:00 +26°C° 0 mm 1 mps 751 mmHg 80%
    23:00 +26°C° 0 mm 1 mps 751 mmHg 83%

    28 January, Sunday

    Time Temperature Precipitation Wind Pressure Humidity
    00:00 +26°C° 0 mm 1 mps 751 mmHg 85%
    01:00 +25°C° 0 mm 1 mps 751 mmHg 87%
    02:00 +25°C° 0 mm 1 mps 750 mmHg 89%
    03:00 +25°C° 0 mm 1 mps 750 mmHg 90%
    04:00 +24°C° 0 mm 1 mps 751 mmHg 91%
    05:00 +22°C° 0 mm 0 mps 751 mmHg 92%
    06:00 +26°C° 0 mm 1 mps 751 mmHg 85%
    07:00 +27°C° 0 mm 1 mps 752 mmHg 79%
    08:00 +28°C° 0 mm 1 mps 752 mmHg 72%
    09:00 +31°C° 0 mm 1 mps 752 mmHg 62%
    10:00 +33°C° 0 mm 1 mps 752 mmHg 52%
    11:00 +36°C° 0 mm 1 mps 752 mmHg 42%
    12:00 +36°C° 0.1 mm 1 mps 751 mmHg 41%
    13:00 +37°C° 0.1 mm 2 mps 750 mmHg 40%
    14:00 +36°C° 0.1 mm 2 mps 749 mmHg 39%
    15:00 +36°C° 0.1 mm 2 mps 749 mmHg 42%
    16:00 +35°C° 0.1 mm 3 mps 749 mmHg 45%
    17:00 +34°C° 0.1 mm 3 mps 749 mmHg 48%
    18:00 +31°C° 0 mm 2 mps 750 mmHg 55%
    19:00 +29°C° 0 mm 2 mps 751 mmHg 63%
    20:00 +28°C° 0 mm 2 mps 751 mmHg 70%
    21:00 +27°C° 0 mm 1 mps 751 mmHg 74%
    22:00 +26°C° 0 mm 1 mps 751 mmHg 77%
    23:00 +26°C° 0 mm 1 mps 751 mmHg 81%
    Show more